Date String (YYYY-MM-DD hh:mm:ss) UTC,Instrument flags,absolute air pressure of the measurement (hPa),sample flow rate (lpm),inlet stack bypass flow (lpm),air temperature of the measurement (°C),ambient temperature measured by the external sensor (°C),aerosol sample conditioner tube jacket temperature (°C),OPC LED temperature (°C),internal box temperature (°C),relative humidity of the measurement (%),span deviation,mass concentration of particles derived from Lorenz-Mie calculation of OPC scattering (μg/m³),mass concentration of particles derived from Lorenz-Mie calculation of OPC scattering (μg/m³),mass concentration of particles derived from Lorenz-Mie calculation of OPC scattering (μg/m³)
DateTimeUTC,F1_M11,P_M11,Q1_M11,Q2_M11,T1_M11,T2_M11,T3_M11,T4_M11,T5_M11,U1_M11,ZSPAN_M11,X0_M11,X2_M11,X1_M11
2023-10-13 19:00:00,SystemResetWarning,0832.5,4.99,000.00,027.1,025.9,000.0,035.4,028.7,11.7,0000.0,0003.69,0002.16,0001.87
2023-10-13 19:01:00,SystemResetWarning,0832.6,4.99,000.00,027.1,026.0,000.0,035.4,028.8,11.7,0000.0,0004.02,0002.14,0001.87
2023-10-13 19:02:00,SystemResetWarning,0832.6,5.00,000.00,027.1,026.0,000.0,035.4,028.8,11.9,0000.0,0004.08,0002.14,0001.88
2023-10-13 19:03:00,SystemResetWarning,0832.5,5.00,000.00,027.1,026.0,000.0,035.4,028.8,12.0,0000.0,0005.10,0002.14,0001.87
2023-10-13 19:04:00,SystemResetWarning,0832.6,5.01,000.00,027.1,026.0,000.0,035.4,028.8,12.0,0000.0,0005.42,0002.14,0001.87
2023-10-13 19:05:00,SystemResetWarning,0832.6,5.00,000.00,027.1,026.1,000.0,035.4,028.9,11.9,0000.0,0005.47,0002.17,0001.87
2023-10-13 19:06:00,SystemResetWarning,0832.6,5.00,000.00,027.2,026.1,000.0,035.5,028.9,11.8,0000.0,0005.27,0002.15,0001.87
2023-10-13 19:07:00,SystemResetWarning,0832.5,4.99,000.00,027.2,026.1,000.0,035.5,028.9,11.6,0000.0,0005.12,0002.13,0001.85
2023-10-13 19:08:00,SystemResetWarning,0832.5,4.99,000.00,027.2,026.1,000.0,035.5,028.9,11.5,0000.0,0004.91,0002.12,0001.83
2023-10-13 19:09:00,SystemResetWarning,0832.6,4.99,000.00,027.2,026.1,000.0,035.5,028.9,11.5,0000.0,0005.43,0002.07,0001.82
2023-10-13 19:10:00,SystemResetWarning,0832.6,5.00,000.00,027.2,026.1,000.0,035.5,028.9,11.5,0000.0,0005.40,0002.05,0001.81
2023-10-13 19:11:00,SystemResetWarning,0832.5,5.01,000.00,027.2,026.1,000.0,035.5,029.0,11.4,0000.0,0005.47,0002.02,0001.78
2023-10-13 19:12:00,SystemResetWarning,0832.6,5.01,000.00,027.2,026.1,000.0,035.6,029.0,11.4,0000.0,0005.22,0001.98,0001.75
2023-10-13 19:13:00,SystemResetWarning,0832.5,5.01,000.00,027.3,026.1,000.0,035.6,029.0,11.5,0000.0,0005.09,0001.95,0001.71
2023-10-13 19:14:00,SystemResetWarning,0832.6,5.00,000.00,027.3,026.1,000.0,035.6,029.0,11.5,0000.0,0004.04,0001.91,0001.67
2023-10-13 19:15:00,SystemResetWarning,0832.5,5.00,000.00,027.3,026.1,000.0,035.6,029.0,11.4,0000.0,0003.70,0001.88,0001.65
2023-10-13 19:16:00,SystemResetWarning,0832.6,5.00,000.00,027.3,026.1,000.0,035.6,029.0,11.5,0000.0,0003.71,0001.87,0001.64
2023-10-13 19:17:00,SystemResetWarning,0832.6,5.00,000.00,027.3,026.2,000.0,035.6,029.1,11.6,0000.0,0003.67,0001.84,0001.61
2023-10-13 19:18:00,SystemResetWarning,0832.5,5.00,000.00,027.3,026.2,000.0,035.7,029.1,11.5,0000.0,0003.55,0001.81,0001.58
2023-10-13 19:19:00,SystemResetWarning,0832.5,5.00,000.00,027.3,026.2,000.0,035.7,029.1,11.5,0000.0,0003.82,0001.77,0001.55
2023-10-13 19:20:00,SystemResetWarning,0832.5,5.00,000.00,027.4,026.2,000.0,035.7,029.1,11.4,0000.0,0003.20,0001.74,0001.52
2023-10-13 19:21:00,SystemResetWarning,0832.5,5.01,000.00,027.4,026.3,000.0,035.7,029.1,11.3,0000.0,0003.14,0001.69,0001.48
2023-10-13 19:22:00,SystemResetWarning,0832.5,5.00,000.00,027.4,026.3,000.0,035.7,029.2,11.4,0000.0,0003.03,0001.70,0001.46
2023-10-13 19:23:00,SystemResetWarning,0832.4,5.00,000.00,027.4,026.3,000.0,035.7,029.2,11.4,0000.0,0003.10,0001.71,0001.45
2023-10-13 19:24:00,SystemResetWarning,0832.4,5.00,000.00,027.4,026.3,000.0,035.7,029.2,11.3,0000.0,0003.14,0001.69,0001.43
2023-10-13 19:25:00,SystemResetWarning,0832.4,5.00,000.00,027.5,026.3,000.0,035.8,029.2,11.3,0000.0,0003.58,0001.72,0001.42
2023-10-13 19:26:00,SystemResetWarning,0832.4,5.01,000.00,027.5,026.4,000.0,035.8,029.2,11.2,0000.0,0004.11,0001.73,0001.40
2023-10-13 19:27:00,SystemResetWarning,0832.4,5.00,000.00,027.5,026.4,000.0,035.8,029.2,11.2,0000.0,0004.17,0001.73,0001.39
2023-10-13 19:28:00,SystemResetWarning,0832.4,4.99,000.00,027.5,026.4,000.0,035.8,029.2,11.2,0000.0,0004.28,0001.71,0001.39
2023-10-13 19:29:00,SystemResetWarning,0832.4,4.99,000.00,027.5,026.5,000.0,035.9,029.3,11.2,0000.0,0004.45,0001.74,0001.41
2023-10-13 19:30:00,SystemResetWarning,0832.4,5.00,000.00,027.6,026.5,000.0,035.9,029.3,11.2,0000.0,0003.81,0001.72,0001.42
2023-10-13 19:31:00,SystemResetWarning,0832.4,5.00,000.00,027.6,026.5,000.0,035.9,029.3,11.2,0000.0,0003.77,0001.73,0001.42
2023-10-13 19:32:00,SystemResetWarning,0832.5,5.00,000.00,027.6,026.5,000.0,035.9,029.3,11.2,0000.0,0003.79,0001.74,0001.42
2023-10-13 19:33:00,SystemResetWarning,0832.5,5.00,000.00,027.6,026.6,000.0,035.9,029.3,11.3,0000.0,0003.83,0001.75,0001.44
2023-10-13 19:34:00,SystemResetWarning,0832.5,5.00,000.00,027.6,026.6,000.0,036.0,029.4,11.3,0000.0,0003.71,0001.75,0001.46
2023-10-13 19:35:00,SystemResetWarning,0832.6,5.00,000.00,027.7,026.6,000.0,036.0,029.4,11.2,0000.0,0003.61,0001.74,0001.47
2023-10-13 19:36:00,SystemResetWarning,0832.6,5.00,000.00,027.7,026.6,000.0,036.0,029.4,11.3,0000.0,0003.57,0001.74,0001.48
2023-10-13 19:37:00,SystemResetWarning,0832.5,5.00,000.00,027.7,026.6,000.0,036.0,029.4,11.5,0000.0,0002.86,0001.75,0001.49
2023-10-13 19:38:00,SystemResetWarning,0832.5,5.01,000.00,027.7,026.7,000.0,036.0,029.5,11.2,0000.0,0002.84,0001.73,0001.48
2023-10-13 19:39:00,SystemResetWarning,0832.5,5.00,000.00,027.7,026.7,000.0,036.0,029.5,11.1,0000.0,0002.88,0001.77,0001.48
2023-10-13 19:40:00,SystemResetWarning,0832.5,5.00,000.00,027.8,026.7,000.0,036.1,029.5,11.1,0000.0,0002.95,0001.81,0001.46
2023-10-13 19:41:00,SystemResetWarning,0832.5,5.00,000.00,027.8,026.7,000.0,036.1,029.5,11.2,0000.0,0003.00,0001.82,0001.46
2023-10-13 19:42:00,SystemResetWarning,0832.5,5.00,000.00,027.8,026.7,000.0,036.1,029.5,11.2,0000.0,0003.06,0001.83,0001.45
2023-10-13 19:43:00,SystemResetWarning,0832.5,5.00,000.00,027.8,026.7,000.0,036.1,029.5,11.3,0000.0,0003.21,0001.85,0001.45
2023-10-13 19:44:00,SystemResetWarning,0832.5,5.00,000.00,027.8,026.7,000.0,036.1,029.6,11.1,0000.0,0003.16,0001.83,0001.43
2023-10-13 19:45:00,SystemResetWarning,0832.5,5.01,000.00,027.8,026.7,000.0,036.1,029.6,11.1,0000.0,0003.35,0001.78,0001.40
2023-10-13 19:46:00,SystemResetWarning,0832.5,5.00,000.00,027.8,026.7,000.0,036.1,029.6,11.0,0000.0,0003.99,0001.79,0001.39
2023-10-13 19:47:00,SystemResetWarning,0832.5,5.00,000.00,027.9,026.7,000.0,036.1,029.6,11.0,0000.0,0003.94,0001.79,0001.39
2023-10-13 19:48:00,SystemResetWarning,0832.6,4.99,000.00,027.9,026.7,000.0,036.2,029.6,11.1,0000.0,0003.77,0001.74,0001.37
2023-10-13 19:49:00,SystemResetWarning,0832.5,5.00,000.00,027.9,026.7,000.0,036.2,029.6,11.1,0000.0,0003.77,0001.74,0001.38
2023-10-13 19:50:00,SystemResetWarning,0832.6,5.00,000.00,027.9,026.8,000.0,036.2,029.6,11.1,0000.0,0003.65,0001.69,0001.37
2023-10-13 19:51:00,SystemResetWarning,0832.5,5.00,000.00,027.9,026.8,000.0,036.2,029.7,11.1,0000.0,0003.30,0001.63,0001.37
2023-10-13 19:52:00,SystemResetWarning,0832.5,5.00,000.00,027.9,026.8,000.0,036.2,029.7,11.0,0000.0,0003.43,0001.67,0001.40
2023-10-13 19:53:00,SystemResetWarning,0832.5,5.00,000.00,027.9,026.8,000.0,036.2,029.7,11.0,0000.0,0003.45,0001.67,0001.41
2023-10-13 19:54:00,SystemResetWarning,0832.5,5.00,000.00,027.9,026.8,000.0,036.3,029.7,10.9,0000.0,0003.35,0001.68,0001.42
2023-10-13 19:55:00,SystemResetWarning,0832.5,5.00,000.00,028.0,026.8,000.0,036.3,029.7,11.0,0000.0,0003.43,0001.70,0001.43
2023-10-13 19:56:00,SystemResetWarning,0832.5,5.01,000.00,028.0,026.8,000.0,036.3,029.7,11.0,0000.0,0003.22,0001.71,0001.44
2023-10-13 19:57:00,SystemResetWarning,0832.5,5.00,000.00,028.0,026.8,000.0,036.3,029.7,11.0,0000.0,0002.48,0001.69,0001.45
2023-10-13 19:58:00,SystemResetWarning,0832.5,5.00,000.00,028.0,026.8,000.0,036.3,029.7,11.0,0000.0,0002.53,0001.70,0001.44
2023-10-13 19:59:00,SystemResetWarning,0832.5,5.00,000.00,028.0,026.9,000.0,036.3,029.8,11.1,0000.0,0002.49,0001.70,0001.44
